User: anonymous   Login
Location: Churchill
(58.7670°N, 94.1670°W)
Time: 11:16:17
(UTC-05:00)
Language:

Cosmos 2142 Rocket - Orbit

View from above orbital plane
View from above orbital plane
View from above satellite
View from above satellite

Ground track
Ground track

The orbit data is extracted from the following two-line orbital elements,

1 21231U 91029B   15087.23971767  .00000085  00000-0  72708-4 0  9994
2 21231 082.9556 350.0773 0034804 340.4488 180.8776 13.75672154202148
Epoch (UTC): 28 March 2015 05:45:11
Eccentricity: 0.0034804
inclination: 82.9556°
perigee height: 953 km
apogee height: 1005 km
right ascension of ascending node: 350.0773°
argument of perigee: 340.4488°
revolutions per day: 13.75672154
mean anomaly at epoch: 180.8776°
orbit number at epoch: 20214

The dashed part of the orbit path shows where the satellite is in the earth's shadow,  

DLR